RH
55 61 53 59 52 52 46 40 40 38 45 57 79 94 94 91 90 94 94 98 97 94 87 70 49 38 35 35 39 41 42 40 44 46 46 47 43 41 45 49 61 68 75 65 69 68 63 49 45 43 46 49 50 52
61 66 58 52 55 46 44 41 34 32 35 54 82 95 96 93 86 91 97 98 99 94 89 72 56 43 38 36 39 43 39 38 38 44 47 47 43 41 44 51 51 59 62 60 55 52 43 44 43 43 42 46 47 51
63 58 60 55 48 43 41 36 36 31 30 44 75 94 97 99 92 93 97 99 98 97 82 73 59 52 46 46 45 44 43 41 41 41 45 47 42 36 38 41 45 48 56 62 48 41 42 37 41 42 39 42 45 50
61 62 60 55 52 40 38 39 38 32 29 38 60 82 96 94 98 98 98 98 96 98 91 70 62 59 59 59 56 50 47 47 45 41 44 47 43 38 39 37 39 43 48 52 53 46 38 39 36 40 42 43 46 52
62 69 67 56 56 45 40 39 39 33 27 23 56 84 97 96 96 98 98 98 98 92 91 74 66 68 71 66 60 54 51 53 52 49 47 48 47 42 43 43 44 40 48 53 54 54 52 41 39 36 40 43 46 47
62 60 66 60 56 53 40 38 39 36 27 19 41 80 94 99 98 99 98 98 98 98 94 89 76 80 77 71 66 59 55 57 58 53 49 48 51 44 45 47 41 45 49 49 48 46 57 55 41 41 37 37 39 39
61 58 59 54 50 48 38 39 42 42 28 17 33 74 91 98 98 98 92 85 93 98 98 96 95 89 82 75 69 63 60 61 61 59 56 53 55 51 47 44 44 46 48 50 52 54 50 56 55 46 43 37 38 39
46 49 54 54 48 46 39 35 44 43 30 18 26 70 85 98 99 97 98 93 95 98 99 95 93 91 87 78 73 65 62 59 58 59 60 56 61 57 51 35 36 39 50 53 51 53 56 51 52 56 53 49 41 41
55 57 46 62 66 55 41 40 39 42 26 20 34 66 89 98 96 94 99 98 98 95 96 94 92 88 83 80 75 70 63 63 62 62 61 60 63 60 48 39 40 44 54 54 53 54 54 55 54 52 58 57 54 48
82 84 58 67 71 62 45 41 43 38 27 25 45 76 98 96 95 98 98 98 98 98 96 95 89 87 85 84 80 71 70 68 68 62 64 70 66 57 50 42 43 49 51 56 56 54 54 56 57 57 55 61 57 55
66 71 72 62 51 53 46 41 48 34 37 42 69 90 98 98 99 99 98 99 98 98 96 96 94 90 87 86 87 83 77 74 77 73 77 76 70 64 51 49 47 50 53 53 51 52 54 58 61 62 58 61 61 60
70 60 58 55 45 42 40 46 44 31 51 57 83 97 99 99 99 98 98 96 92 90 92 94 93 88 90 83 81 82 83 81 79 75 75 71 62 62 54 50 46 44 44 48 53 53 56 62 66 64 61 69 69 67
78 79 64 59 56 46 49 52 33 33 52 67 95 98 98 98 98 97 91 90 88 88 87 87 90 90 92 90 90 87 86 84 82 82 79 67 58 58 59 56 54 52 52 56 58 58 61 65 68 70 67 64 65 65
57 74 69 48 47 60 59 41 26 46 57 82 98 98 98 98 97 91 82 80 80 83 82 84 88 91 94 97 97 96 94 92 90 85 79 70 66 67 67 67 64 62 62 61 63 63 64 65 66 64 62 64 66 64
53 56 52 68 77 63 44 27 33 59 73 94 98 97 95 96 94 93 91 86 85 84 83 88 92 90 95 97 97 96 96 95 88 85 81 77 78 77 75 72 70 72 74 73 71 69 68 66 63 62 62 62 61 60
75 76 77 77 62 37 28 39 62 68 92 98 98 97 96 96 98 97 94 94 91 88 88 85 89 90 95 95 93 93 93 92 89 84 77 81 84 86 86 86 84 82 82 83 83 83 78 70 66 64 62 60 59 55
52 73 76 71 51 29 42 68 71 86 98 97 97 96 97 98 98 98 99 97 95 91 87 87 88 92 92 93 94 92 92 91 91 90 92 92 86 94 93 88 89 94 96 94 84 79 81 76 71 66 65 64 63 62
52 46 58 54 41 27 54 70 72 85 97 98 97 97 97 98 98 98 98 98 96 93 91 89 88 90 92 94 94 94 96 96 90 83 87 87 82 80 83 83 89 91 94 96 85 82 81 80 78 75 71 66 64 65
51 43 50 49 37 25 51 73 72 87 97 98 97 95 97 98 98 98 98 98 99 97 94 94 91 91 95 97 93 92 91 86 81 80 83 84 86 85 85 81 81 78 78 84 89 89 86 82 79 76 74 72 72 72
60 49 56 45 34 25 32 62 78 85 97 97 96 97 98 97 98 98 98 97 98 98 97 96 95 95 97 92 89 87 87 88 91 90 90 87 86 87 85 83 81 77 77 77 78 77 78 84 86 88 88 85 82 80
58 60 56 45 37 34 33 45 66 82 94 97 97 97 97 97 97 97 96 96 95 96 97 97 96 97 95 94 94 94 93 91 89 86 82 78 75 71 70 70 69 70 72 73 73 73 74 73 72 72 75 79 81 83
50 57 51 43 40 40 42 40 49 73 79 88 91 93 93 90 90 91 91 94 97 96 95 93 90 89 91 90 90 86 78 75 71 67 65 62 60 58 58 57 55 55 55 58 58 58 58 60 61 62 63 64 65 65
53 53 48 45 39 40 47 44 42 44 57 69 75 76 81 84 84 81 82 91 98 98 95 91 86 83 80 79 77 74 71 68 67 63 60 57 55 53 51 49 48 47 47 47 46 45 45 45 44 43 44 43 43 43
57 53 50 46 43 47 44 47 44 41 41 50 53 55 54 55 59 65 73 82 82 81 82 82 81 78 75 72 70 67 66 64 61 57 53 49 45 42 40 39 39 38 39 39 39 38 38 38 38 38 38 38 38 38
65 63 55 52 49 49 49 49 48 45 45 44 43 46 48 47 46 46 54 61 63 64 62 61 63 63 62 61 57 56 54 52 51 49 45 41 39 38 36 34 33 33 34 36 35 33 32 33 35 37 38 38 38 37
75 70 62 58 55 48 48 50 52 49 47 46 46 46 43 42 43 48 50 50 49 51 50 48 47 46 45 44 44 45 43 39 37 36 36 33 33 33 33 32 33 34 35 36 37 37 38 39 40 40 39 40 41 41
79 77 71 66 63 63 61 62 62 59 55 52 52 51 49 50 50 50 50 50 50 49 46 44 42 42 41 39 38 37 37 36 36 35 34 34 36 38 38 40 41 43 44 43 44 42 42 43 41 40 38 36 36 35
83 74 67 68 69 72 72 71 69 68 68 68 65 63 61 58 58 58 57 56 53 49 46 44 45 45 45 43 42 40 39 41 41 42 43 46 47 48 49 45 41 42 41 41 40 39 37 36 36 35 33 31 30 30
84 79 79 83 82 81 81 83 84 82 80 76 74 72 70 69 66 64 63 62 60 56 55 51 52 52 51 48 45 45 47 49 50 53 55 57 57 52 50 50 49 48 46 44 44 43 40 38 37 37 34 31 30 29
80 83 86 89 92 93 95 94 95 94 91 89 86 84 81 78 75 72 69 66 63 60 57 55 54 58 57 54 52 53 56 59 61 63 63 61 60 60 59 57 55 53 50 48 47 47 45 44 42 39 37 34 34 33
92 91 91 92 94 97 98 98 98 98 98 98 97 95 92 90 87 81 76 72 67 63 61 62 67 70 69 67 66 65 66 69 69 72 73 72 68 68 69 68 65 63 62 59 56 52 53 51 47 44 43 40 37 35
59 60 61 64 68 73 76 79 84 91 95 98 98 98 98 98 96 91 88 84 81 78 76 78 81 80 82 82 81 80 82 84 86 86 82 80 76 74 73 72 72 71 68 65 62 57 52 50 48 47 44 40 37 34
61 59 56 54 53 53 54 52 52 56 59 63 73 86 97 99 99 98 98 96 93 91 90 90 90 89 89 90 91 91 91 92 90 86 85 85 84 82 78 75 73 69 64 60 58 56 54 53 52 50 45 40 36 34